Flag for Germany Weather past 2 weeks in Andernach, Rhineland-Palatinate, Germany

Now
61 °F

Low clouds.


Feels Like: 61 °F
Forecast: 59 / 71 °F
Wind: 3 mph from West

Location: Nuerburg-Barweiler

Current Time: Jul 12, 2014 at 8:53:32 PM

Latest Report: Jul 12, 2014 at 8:00 PM


Visibility: 22 mi

Pressure: 29.90 "Hg

Humidity: 89%

Dew point: 58 °F

Location of AndernachLocation

Historic Weather in Andernach — Graph

°F

Andernach temperature yesterday

Maximum temperature yesterday: 69 °F (at 6:00 PM)
Minimum temperature yesterday: 54 °F (at 4:00 AM)
Average temperature yesterday: 61 °F

Past Weeks' High & Low Weather Summary

 TemperatureHumidityPressure
High79 °F (Jul 4, 2:00 PM)99% (Jun 29, 2:00 AM)30.26 "Hg (Jun 29, 2:00 AM)
Low44 °F (Jul 1, 6:00 AM)25% (Jul 3, 6:00 PM)29.68 "Hg (Jul 6, 7:00 PM)
Average59 °F78%29.95 "Hg
* Reported Jun 27 8:00 PM — Jul 12 8:00 PM, Andernach, Weather by CustomWeather, © 2014

Note: Actual official high and low records may vary slightly from our data, if they occured in-between our weather recording intervals... More about our weather records

Advertising

Andernach weather history for previous 24 hours

 ConditionsComfort  
Time TempWeatherWind HumidityBarometerVisibility
8:00 PM
Jul 12
61 °FLow clouds.3 mph89%29.90 "Hg22 mi
7:00 PM61 °FLow clouds.2 mph90%29.90 "Hg16 mi
6:00 PM60 °FLow clouds.3 mph94%29.91 "Hg14 mi
5:00 PM61 °FLight rain. Low clouds.3 mph90%29.91 "Hg16 mi
4:00 PM60 °FLow clouds.2 mph93%29.91 "Hg12 mi
3:00 PM60 °FLow clouds.2 mph91%29.93 "Hg19 mi
2:00 PM61 °FLow clouds.3 mph89%29.92 "Hg16 mi
1:00 PM61 °FLow clouds.2 mph90%29.93 "Hg16 mi
12:00 PM61 °FLow clouds.2 mph90%29.93 "Hg14 mi
11:00 AM60 °FLow clouds.2 mph94%29.93 "Hg10 mi
10:00 AM60 °FLow clouds.2 mph94%29.93 "Hg6 mi
9:00 AM59 °FFog.2 mph98%29.94 "Hg4 mi
8:00 AM59 °FFog.1 mph96%29.93 "Hg3 mi
7:00 AM59 °FFog.2 mph95%29.93 "Hg4 mi
6:00 AM59 °FLow clouds.2 mph95%29.93 "Hg3 mi
4:00 AM59 °FFog.2 mph95%29.94 "Hg3 mi
3:00 AM59 °FLow clouds.2 mph94%29.96 "Hg3 mi
2:00 AM60 °FFog.2 mph94%29.96 "Hg3 mi
1:00 AM60 °FFog.2 mph93%29.96 "Hg3 mi
12:00 AM60 °FFog.3 mph92%29.96 "Hg4 mi
11:00 PM
Jul 11
61 °FLow clouds.5 mph90%29.97 "Hg5 mi
10:00 PM63 °FPassing clouds.6 mph90%29.96 "Hg6 mi
9:00 PM64 °FScattered clouds.6 mph86%29.93 "Hg9 mi
8:00 PM67 °FPartly sunny.5 mph80%29.92 "Hg11 mi
Weather by CustomWeather, © 2014

See weather overviewHow to use our weather pages